C719 Diversion




Date Battery Voltage (V) Gauge Height (ft) Canal Flow (cfs) Gate 1 Height (ft) Gate 2 Height (ft) Pond (ft) Pond Height (ft) Pond Battery Voltage (V) Pond RF Signal (db) Call Fails Total Fails Tries Auto Pond Pond Set (ft) Gate 1 Warning Gate 2 Warning Gate 1 Up Total Gate 1 Down Total Gate 2 Up Total Gate 2 Down Total Settle Count Auto CFS CFS Set (cfs)
02/01/2019 13.1 -2.08 0.00 -0.10 -0.01
02/02/2019 13.1 -2.08 0.00 -0.10 -0.01
02/03/2019 13.1 -2.07 0.00 -0.10 -0.01
02/04/2019 13.0 -1.99 0.00 -0.11 -0.01
02/05/2019 13.0 -1.97 0.00 -0.10 -0.01
02/06/2019 13.0 -1.91 0.00 -0.11 -0.01
02/07/2019 13.2 -1.90 0.00 -0.11 -0.01
02/08/2019 13.2 -1.91 0.00 -0.10 -0.01
02/09/2019 13.1 -1.90 0.00 -0.10 -0.01
02/10/2019 13.0 -1.90 0.00 -0.10 -0.01
02/11/2019 13.0 -1.90 0.00 -0.10 -0.01
02/12/2019 13.1 -1.94 0.00 -0.10 -0.01
02/13/2019 13.1 -1.93 0.00 -0.10 -0.01
02/14/2019 12.7 -1.91 0.00 -0.10 -0.01
02/15/2019 12.4 -1.65 0.00 -0.11 -0.01
02/16/2019 12.9 -1.22 0.00 -0.11 -0.01
02/17/2019 13.2 -1.31 0.00 -0.10 -0.01
02/18/2019 13.2 -1.35 0.00 -0.10 -0.01
02/19/2019 13.1 -1.35 0.00 -0.10 -0.01
02/20/2019 13.2 -1.40 0.00 -0.10 -0.01
02/21/2019 13.2 -1.42 0.00 -0.10 -0.01
02/22/2019 13.0 -1.35 0.00 -0.10 -0.01
02/23/2019 13.1 -1.30 0.00 -0.10 -0.01
02/24/2019 13.2 -1.37 0.00 -0.10 -0.01
02/25/2019 13.1 -1.39 0.00 -0.10 -0.01
02/26/2019 13.1 -1.42 0.00 -0.10 -0.01
02/27/2019 13.1 -1.43 0.00 -0.11 -0.01
02/28/2019 13.1 -1.47 0.00 -0.11 -0.01
Average 0.00 0.00
Maximum 0.00
Minimum 0.00
Total Volume (AF) 0.00 0.00